AMX1020 MMMY-MMGL

Flight info

Callsign AMX1020
Flight time 1h 4m
Altitude 36000
Route URTOB1A URTOB UJ11 MEZCA MEZCA1B
Aircraft B738/M-SABDFGRVYL/LB2

Departure

Time 2026-04-22 01:59
Airport Monterrey International Airport (MMMY)

Arrival

Time 2026-04-22 03:04
Airport Guadalajara International Airport (MMGL)
Time Latitude Longitude Altitude Speed Heading
2026-04-22 01:32 25.77855 -100.11283 1281 ft 0 kts 211°
2026-04-22 01:54 25.77856 -100.11282 1280 ft 1 kts 211°
2026-04-22 01:55 25.77879 -100.11267 1280 ft 4 kts 230°
2026-04-22 01:55 25.77888 -100.11224 1278 ft 1 kts 320°
2026-04-22 01:55 25.77897 -100.11231 1278 ft 0 kts 326°
2026-04-22 01:56 25.77898 -100.11231 1278 ft 0 kts 326°
2026-04-22 01:56 25.77899 -100.11232 1278 ft 0 kts 326°
2026-04-22 01:56 25.77973 -100.11318 1282 ft 31 kts 303°
2026-04-22 01:57 25.78096 -100.11543 1286 ft 33 kts 302°
2026-04-22 01:57 25.78208 -100.11745 1290 ft 24 kts 301°
2026-04-22 01:57 25.78336 -100.11762 1288 ft 21 kts 30°
2026-04-22 01:57 25.78377 -100.11627 1285 ft 20 kts 112°
2026-04-22 01:58 25.78298 -100.11497 1283 ft 20 kts 118°
2026-04-22 01:58 25.78218 -100.11362 1280 ft 21 kts 121°
2026-04-22 01:58 25.78107 -100.11151 1276 ft 61 kts 121°
2026-04-22 01:58 25.77743 -100.10482 1263 ft 138 kts 120°
2026-04-22 01:59 25.77162 -100.09418 1654 ft 167 kts 120°
2026-04-22 01:59 25.76598 -100.08363 2520 ft 169 kts 120°
2026-04-22 01:59 25.75959 -100.07219 3187 ft 179 kts 122°
2026-04-22 01:59 25.75268 -100.06084 3890 ft 183 kts 122°
2026-04-22 02:00 25.74576 -100.04878 4555 ft 191 kts 121°
2026-04-22 02:00 25.73891 -100.03651 5384 ft 189 kts 121°
2026-04-22 02:00 25.73219 -100.02425 6148 ft 189 kts 121°
2026-04-22 02:00 25.72545 -100.01174 6810 ft 194 kts 121°
2026-04-22 02:01 25.71849 -99.99874 7409 ft 202 kts 121°
2026-04-22 02:01 25.71116 -99.98502 8024 ft 209 kts 121°
2026-04-22 02:01 25.70364 -99.97089 8559 ft 218 kts 121°
2026-04-22 02:01 25.69590 -99.95648 9164 ft 222 kts 121°
2026-04-22 02:02 25.68788 -99.94166 9745 ft 228 kts 121°
2026-04-22 02:02 25.67790 -99.92796 10190 ft 239 kts 148°
2026-04-22 02:02 25.66208 -99.92220 10611 ft 244 kts 187°
2026-04-22 02:02 25.64622 -99.92821 11062 ft 245 kts 223°
2026-04-22 02:03 25.63680 -99.94363 11535 ft 249 kts 257°
2026-04-22 02:03 25.63641 -99.96282 12101 ft 255 kts 277°
2026-04-22 02:03 25.63881 -99.98230 12817 ft 258 kts 276°
2026-04-22 02:03 25.64070 -100.00197 13556 ft 260 kts 274°
2026-04-22 02:04 25.64232 -100.04258 14785 ft 273 kts 270°
2026-04-22 02:04 25.64159 -100.06435 15095 ft 292 kts 265°
2026-04-22 02:04 25.63864 -100.08697 15559 ft 305 kts 260°
2026-04-22 02:05 25.63341 -100.11033 15923 ft 321 kts 255°
2026-04-22 02:05 25.62595 -100.13409 16309 ft 335 kts 251°
2026-04-22 02:05 25.61689 -100.15880 16651 ft 351 kts 249°
2026-04-22 02:05 25.60703 -100.18388 17002 ft 366 kts 248°
2026-04-22 02:06 25.59623 -100.20988 17348 ft 378 kts 247°
2026-04-22 02:06 25.58459 -100.23613 17997 ft 382 kts 246°
2026-04-22 02:06 25.57208 -100.26231 18647 ft 387 kts 244°
2026-04-22 02:06 25.55862 -100.28800 19336 ft 390 kts 242°
2026-04-22 02:07 25.54394 -100.31345 19880 ft 397 kts 239°
2026-04-22 02:07 25.52805 -100.33824 20091 ft 396 kts 236°
2026-04-22 02:07 25.51053 -100.36229 20268 ft 398 kts 233°
2026-04-22 02:07 25.49180 -100.38460 20282 ft 398 kts 229°
2026-04-22 02:08 25.47116 -100.40539 20588 ft 408 kts 224°
2026-04-22 02:08 25.44819 -100.42425 21383 ft 410 kts 218°
2026-04-22 02:08 25.42343 -100.43983 22001 ft 418 kts 211°
2026-04-22 02:08 25.39604 -100.45126 22600 ft 427 kts 202°
2026-04-22 02:09 25.36697 -100.45928 23218 ft 431 kts 200°
2026-04-22 02:09 25.33833 -100.46981 23746 ft 429 kts 209°
2026-04-22 02:09 25.31220 -100.48524 24352 ft 424 kts 219°
2026-04-22 02:09 25.28910 -100.50479 24969 ft 420 kts 226°
2026-04-22 02:10 25.26772 -100.52660 25550 ft 421 kts 229°
2026-04-22 02:10 25.24621 -100.54929 26080 ft 424 kts 228°
2026-04-22 02:10 25.22470 -100.57140 26596 ft 428 kts 227°
2026-04-22 02:10 25.20241 -100.59341 27102 ft 432 kts 226°
2026-04-22 02:11 25.17934 -100.61526 27624 ft 435 kts 225°
2026-04-22 02:11 25.15607 -100.63657 28124 ft 438 kts 224°
2026-04-22 02:11 25.13246 -100.65766 28645 ft 441 kts 224°
2026-04-22 02:11 25.10817 -100.67902 29146 ft 443 kts 224°
2026-04-22 02:12 25.08409 -100.69994 29969 ft 438 kts 223°
2026-04-22 02:12 25.06032 -100.72040 30854 ft 431 kts 223°
2026-04-22 02:12 25.03686 -100.74053 31605 ft 426 kts 224°
2026-04-22 02:12 25.01344 -100.76061 32209 ft 425 kts 223°
2026-04-22 02:13 24.99029 -100.78046 32782 ft 423 kts 224°
2026-04-22 02:13 24.96712 -100.80033 33410 ft 420 kts 224°
2026-04-22 02:13 24.94401 -100.82013 33974 ft 418 kts 224°
2026-04-22 02:13 24.92125 -100.83964 34546 ft 416 kts 223°
2026-04-22 02:14 24.89842 -100.85918 35142 ft 412 kts 223°
2026-04-22 02:14 24.87592 -100.87845 35663 ft 410 kts 223°
2026-04-22 02:14 24.85300 -100.89806 36135 ft 409 kts 223°
2026-04-22 02:14 24.83044 -100.91739 36373 ft 412 kts 223°
2026-04-22 02:15 24.80761 -100.93697 36364 ft 415 kts 223°
2026-04-22 02:15 24.76208 -100.97585 36357 ft 410 kts 223°
2026-04-22 02:16 24.71693 -101.01439 36353 ft 412 kts 223°
2026-04-22 02:16 24.67155 -101.05308 36360 ft 412 kts 223°
2026-04-22 02:17 24.62598 -101.09190 36360 ft 411 kts 223°
2026-04-22 02:17 24.58073 -101.13042 36372 ft 414 kts 223°
2026-04-22 02:18 24.53531 -101.16902 36367 ft 413 kts 223°
2026-04-22 02:18 24.48960 -101.20787 36365 ft 415 kts 223°
2026-04-22 02:19 24.44396 -101.24659 36355 ft 414 kts 223°
2026-04-22 02:19 24.39852 -101.28514 36360 ft 416 kts 223°
2026-04-22 02:20 24.35283 -101.32388 36368 ft 415 kts 223°
2026-04-22 02:20 24.30689 -101.36275 36373 ft 415 kts 223°
2026-04-22 02:21 24.26101 -101.40156 36376 ft 417 kts 223°
2026-04-22 02:21 24.21534 -101.44009 36379 ft 416 kts 223°
2026-04-22 02:22 24.16814 -101.47749 36384 ft 420 kts 217°
2026-04-22 02:22 24.11426 -101.50463 36401 ft 431 kts 206°
2026-04-22 02:23 24.05714 -101.52487 36404 ft 432 kts 204°
2026-04-22 02:23 23.99949 -101.54381 36405 ft 431 kts 203°
2026-04-22 02:24 23.94214 -101.56291 36410 ft 432 kts 204°
2026-04-22 02:24 23.88445 -101.58250 36410 ft 433 kts 204°
2026-04-22 02:25 23.82686 -101.60224 36410 ft 432 kts 204°
2026-04-22 02:25 23.76958 -101.62193 36422 ft 432 kts 204°
2026-04-22 02:26 23.71225 -101.64162 36419 ft 431 kts 204°
2026-04-22 02:26 23.65505 -101.66130 36424 ft 431 kts 203°
2026-04-22 02:27 23.59807 -101.68088 36425 ft 429 kts 203°
2026-04-22 02:27 23.54096 -101.70049 36422 ft 431 kts 203°
2026-04-22 02:28 23.48365 -101.72015 36424 ft 431 kts 204°
2026-04-22 02:28 23.42639 -101.73978 36422 ft 431 kts 203°
2026-04-22 02:29 23.36870 -101.75952 36424 ft 430 kts 203°
2026-04-22 02:29 23.31171 -101.77898 36418 ft 429 kts 203°
2026-04-22 02:30 23.25484 -101.79838 36425 ft 429 kts 203°
2026-04-22 02:30 23.19739 -101.81798 36430 ft 428 kts 203°
2026-04-22 02:31 23.14060 -101.83734 36438 ft 429 kts 203°
2026-04-22 02:31 23.08393 -101.85664 36438 ft 428 kts 203°
2026-04-22 02:32 23.02699 -101.87600 36439 ft 426 kts 203°
2026-04-22 02:32 22.97001 -101.89536 36450 ft 428 kts 203°
2026-04-22 02:33 22.91313 -101.91469 36445 ft 429 kts 203°
2026-04-22 02:33 22.85606 -101.93404 36445 ft 429 kts 203°
2026-04-22 02:34 22.79894 -101.95338 36444 ft 430 kts 203°
2026-04-22 02:34 22.74128 -101.97289 36443 ft 429 kts 203°
2026-04-22 02:35 22.68451 -101.99206 36443 ft 429 kts 203°
2026-04-22 02:35 22.62705 -102.01150 36442 ft 429 kts 202°
2026-04-22 02:36 22.57011 -102.03075 36441 ft 432 kts 203°
2026-04-22 02:36 22.51280 -102.05006 36441 ft 428 kts 202°
2026-04-22 02:37 22.45525 -102.06948 36447 ft 432 kts 203°
2026-04-22 02:37 22.39759 -102.08891 36436 ft 432 kts 202°
2026-04-22 02:38 22.33997 -102.10831 36425 ft 431 kts 202°
2026-04-22 02:38 22.28225 -102.12771 36424 ft 432 kts 202°
2026-04-22 02:39 22.22475 -102.14704 36415 ft 432 kts 202°
2026-04-22 02:39 22.16727 -102.16634 36416 ft 432 kts 202°
2026-04-22 02:40 22.10970 -102.18565 36412 ft 432 kts 202°
2026-04-22 02:40 22.05185 -102.20505 36412 ft 432 kts 202°
2026-04-22 02:41 21.99407 -102.22440 36394 ft 432 kts 202°
2026-04-22 02:41 21.93659 -102.24365 36405 ft 432 kts 202°
2026-04-22 02:42 21.87863 -102.26304 36368 ft 434 kts 202°
2026-04-22 02:42 21.82113 -102.28223 36344 ft 433 kts 202°
2026-04-22 02:43 21.76292 -102.30174 36333 ft 434 kts 203°
2026-04-22 02:43 21.70779 -102.32694 36313 ft 429 kts 213°
2026-04-22 02:44 21.65811 -102.36237 36307 ft 424 kts 220°
2026-04-22 02:44 21.61148 -102.40131 36319 ft 424 kts 222°
2026-04-22 02:45 21.56529 -102.44093 35643 ft 430 kts 222°
2026-04-22 02:45 21.54182 -102.46100 35018 ft 426 kts 222°
2026-04-22 02:45 21.51869 -102.48069 34206 ft 428 kts 222°
2026-04-22 02:45 21.49530 -102.50054 33206 ft 434 kts 222°
2026-04-22 02:46 21.47153 -102.52067 32191 ft 441 kts 222°
2026-04-22 02:46 21.44740 -102.54105 31243 ft 445 kts 222°
2026-04-22 02:46 21.42284 -102.56176 30278 ft 450 kts 222°
2026-04-22 02:46 21.39809 -102.58258 29265 ft 456 kts 223°
2026-04-22 02:47 21.37321 -102.60352 28259 ft 460 kts 222°
2026-04-22 02:47 21.34778 -102.62490 27253 ft 463 kts 222°
2026-04-22 02:47 21.32264 -102.64601 26581 ft 458 kts 221°
2026-04-22 02:47 21.29748 -102.66708 26007 ft 452 kts 221°
2026-04-22 02:48 21.27298 -102.68761 25307 ft 450 kts 221°
2026-04-22 02:48 21.24828 -102.70828 24652 ft 446 kts 221°
2026-04-22 02:48 21.22427 -102.72837 24392 ft 439 kts 221°
2026-04-22 02:48 21.19977 -102.74888 24383 ft 446 kts 221°
2026-04-22 02:49 21.17535 -102.76932 24377 ft 448 kts 220°
2026-04-22 02:49 21.14972 -102.78818 24083 ft 449 kts 213°
2026-04-22 02:49 21.12108 -102.80157 23434 ft 449 kts 199°
2026-04-22 02:49 21.09073 -102.80890 22787 ft 448 kts 191°
2026-04-22 02:50 21.05951 -102.81171 22242 ft 444 kts 185°
2026-04-22 02:50 21.02889 -102.81300 21614 ft 441 kts 183°
2026-04-22 02:50 20.99815 -102.81119 20988 ft 440 kts 174°
2026-04-22 02:50 20.96838 -102.80400 20408 ft 437 kts 166°
2026-04-22 02:51 20.93922 -102.79583 19815 ft 433 kts 168°
2026-04-22 02:51 20.90988 -102.78895 19184 ft 429 kts 173°
2026-04-22 02:51 20.88033 -102.78882 18545 ft 422 kts 191°
2026-04-22 02:51 20.85258 -102.79793 17931 ft 416 kts 203°
2026-04-22 02:52 20.82605 -102.81059 17282 ft 413 kts 206°
2026-04-22 02:52 20.80036 -102.82404 16689 ft 410 kts 207°
2026-04-22 02:52 20.77515 -102.83734 16090 ft 407 kts 207°
2026-04-22 02:52 20.74945 -102.85061 15456 ft 405 kts 206°
2026-04-22 02:53 20.72420 -102.86324 14850 ft 403 kts 205°
2026-04-22 02:53 20.69887 -102.87558 14296 ft 399 kts 204°
2026-04-22 02:53 20.67349 -102.88772 13679 ft 398 kts 204°
2026-04-22 02:53 20.64847 -102.89953 13080 ft 389 kts 203°
2026-04-22 02:54 20.62418 -102.91092 12495 ft 374 kts 204°
2026-04-22 02:54 20.60065 -102.92193 11988 ft 358 kts 204°
2026-04-22 02:54 20.57852 -102.93227 11587 ft 342 kts 204°
2026-04-22 02:54 20.55724 -102.94224 11203 ft 327 kts 204°
2026-04-22 02:55 20.53669 -102.95188 10868 ft 312 kts 205°
2026-04-22 02:55 20.51732 -102.96098 10589 ft 298 kts 205°
2026-04-22 02:55 20.49849 -102.96984 10262 ft 288 kts 205°
2026-04-22 02:55 20.48062 -102.97824 9905 ft 279 kts 206°
2026-04-22 02:56 20.46306 -102.98650 9636 ft 267 kts 206°
2026-04-22 02:56 20.44661 -102.99422 9485 ft 251 kts 206°
2026-04-22 02:56 20.43113 -103.00159 9365 ft 231 kts 209°
2026-04-22 02:56 20.41834 -103.01027 9254 ft 211 kts 226°
2026-04-22 02:57 20.41073 -103.02266 9168 ft 190 kts 255°
2026-04-22 02:57 20.40928 -103.03605 8959 ft 181 kts 273°
2026-04-22 02:57 20.41126 -103.04914 8808 ft 175 kts 289°
2026-04-22 02:57 20.41601 -103.06064 8819 ft 169 kts 295°
2026-04-22 02:58 20.42076 -103.07196 8798 ft 162 kts 292°
2026-04-22 02:58 20.42524 -103.08309 8798 ft 162 kts 293°
2026-04-22 02:58 20.42985 -103.09411 8732 ft 166 kts 293°
2026-04-22 02:58 20.43459 -103.10530 8445 ft 164 kts 292°
2026-04-22 02:59 20.43918 -103.11613 8193 ft 156 kts 292°
2026-04-22 02:59 20.44366 -103.12666 8071 ft 155 kts 292°
2026-04-22 02:59 20.44825 -103.13750 7874 ft 165 kts 292°
2026-04-22 02:59 20.45293 -103.14854 7642 ft 159 kts 291°
2026-04-22 03:00 20.45737 -103.15899 7449 ft 155 kts 291°
2026-04-22 03:00 20.46183 -103.16962 7283 ft 159 kts 291°
2026-04-22 03:00 20.46645 -103.18041 7068 ft 157 kts 291°
2026-04-22 03:00 20.47094 -103.19111 6890 ft 158 kts 291°
2026-04-22 03:01 20.47547 -103.20177 6690 ft 156 kts 290°
2026-04-22 03:01 20.47996 -103.21215 6508 ft 150 kts 288°
2026-04-22 03:01 20.48425 -103.22256 6330 ft 154 kts 290°
2026-04-22 03:01 20.48867 -103.23296 6121 ft 153 kts 290°
2026-04-22 03:02 20.49316 -103.24355 5964 ft 156 kts 288°
2026-04-22 03:02 20.49747 -103.25388 5731 ft 154 kts 290°
2026-04-22 03:02 20.50210 -103.26423 5580 ft 155 kts 290°
2026-04-22 03:02 20.50618 -103.27501 5399 ft 154 kts 285°
2026-04-22 03:03 20.51088 -103.28496 5210 ft 152 kts 294°
2026-04-22 03:03 20.51529 -103.29538 5054 ft 157 kts 289°
2026-04-22 03:03 20.51929 -103.30547 5032 ft 126 kts 291°
2026-04-22 03:03 20.52197 -103.31181 5033 ft 65 kts 303°
2026-04-22 03:04 20.52348 -103.31459 5033 ft 30 kts 317°
2026-04-22 03:04 20.52474 -103.31568 5033 ft 11 kts 327°
2026-04-22 03:04 20.52513 -103.31588 5033 ft 1 kts 341°
2026-04-22 03:04 20.52515 -103.31589 5033 ft 0 kts 341°
2026-04-22 03:05 20.52519 -103.31589 5033 ft 1 kts 341°
2026-04-22 03:05 20.52578 -103.31585 5033 ft 20 kts 18°
2026-04-22 03:05 20.52719 -103.31519 5032 ft 19 kts 24°
2026-04-22 03:05 20.52744 -103.31403 5031 ft 18 kts 111°
2026-04-22 03:06 20.52696 -103.31280 5030 ft 17 kts 113°
2026-04-22 03:06 20.52646 -103.31161 5030 ft 17 kts 114°
2026-04-22 03:06 20.52596 -103.31046 5029 ft 17 kts 116°
2026-04-22 03:06 20.52544 -103.30933 5028 ft 17 kts 115°
2026-04-22 03:07 20.52494 -103.30816 5027 ft 17 kts 114°
2026-04-22 03:07 20.52449 -103.30699 5027 ft 16 kts 113°
2026-04-22 03:07 20.52403 -103.30589 5027 ft 16 kts 115°
2026-04-22 03:07 20.52360 -103.30493 5026 ft 9 kts 116°
2026-04-22 03:08 20.52376 -103.30437 5026 ft 9 kts 32°
2026-04-22 03:08 20.52396 -103.30379 5026 ft 9 kts 66°
2026-04-22 03:08 20.52442 -103.30327 5025 ft 10 kts 24°
2026-04-22 03:08 20.52473 -103.30312 5024 ft 0 kts 20°
2026-04-22 03:09 20.52477 -103.30311 5024 ft 1 kts 20°
2026-04-22 03:09 20.52495 -103.30304 5024 ft 2 kts 19°
2026-04-22 03:09 20.52497 -103.30303 5024 ft 0 kts 19°